#timestamp,LO_Frequency,Hit 
1504954815.6,286047008.2,N
1504954835.4,286047006.3,N
1504954855.3,286047007.9,N
1504954875.1,286047010.8,N
1504954895.8,286047006.5,N
1504954915.7,286047005.3,N
1504954935.5,286047004.7,N
1504954955.3,286047005.2,N
1504954975.2,286047002.8,N
1504954995.9,286046999.6,N
1504955015.7,286046998.6,N
1504955035.6,286047000.9,N
1504955055.4,286047002.1,N
1504955075.2,286047003.7,N
1504955095.0,286047000.6,N
1504955095.9,286047000.6,N
1504955115.8,286047002.2,N
1504955135.6,286046998.1,N
1504955155.4,286046998.8,N
1504955175.3,286047000.2,N
1504955195.1,286047002.7,N
1504955215.8,286047003.3,N
1504955235.7,286047005.8,N
1504955255.5,286047006.5,N
1504955275.3,286047009.8,P
1504955295.2,286047003.3,N
1504955315.9,286047000.1,N
1504955335.7,286046998.3,N
1504955355.6,286046999.1,N
1504955375.4,286046997.0,N
1504955395.2,286046999.3,N
1504955415.1,286046999.2,N
1504955416.0,286046999.2,N
1504955435.8,286046999.1,N
1504955455.6,286046999.0,N
1504955475.5,286046999.4,N
1504955495.3,286046997.7,N
1504955515.1,286046996.7,N
1504955535.9,286046998.4,N
1504955555.7,286047002.7,N
1504955575.5,286047004.7,N
1504955595.3,286047006.9,N
1504955615.2,286047008.3,N
1504955635.0,286047013.8,P
1504955635.9,286047013.8,N
1504955655.8,286047013.5,N
1504955675.6,286047016.7,P
1504955695.4,286047005.7,N
1504955715.3,286047003.0,N
1504955735.1,286047008.7,N
1504955736.0,286047008.7,N
1504955755.8,286047008.2,N
1504955775.7,286047011.8,N
1504955795.5,286047012.2,P
1504955815.3,286047003.0,N
1504955835.2,286047000.4,N
1504955855.9,286046997.8,N
1504955875.7,286046996.2,N
1504955895.5,286046990.5,N
1504955915.4,286046991.0,N
1504955935.2,286046991.2,N
1504955955.0,286046991.7,N
1504955955.9,286046991.7,N
1504955975.8,286046997.5,N
1504955995.6,286046997.7,N
1504956015.4,286046997.6,N
1504956035.3,286046998.3,N
1504956055.1,286047001.9,N
1504956056.0,286047001.9,N
1504956075.8,286047002.7,N
1504956095.7,286047000.4,N
1504956115.5,286047004.4,N
1504956135.3,286047001.4,N
1504956155.2,286047002.2,N
1504956175.9,286047003.4,N
1504956195.7,286047004.6,N
1504956215.6,286047005.1,N
1504956235.4,286047003.8,N
1504956255.2,286047002.6,N
1504956275.0,286046996.9,N
1504956275.9,286046996.9,N
1504956295.8,286046992.3,N
1504956315.6,286046990.0,N
1504956335.5,286046982.2,P
1504956355.3,286046981.3,N
1504956375.1,286046979.6,N
1504956395.8,286046979.2,N
1504956415.7,286046980.1,N
1504956435.5,286046981.6,N
1504956455.4,286046979.7,P
1504956475.2,286046999.3,N
1504956495.0,286047000.6,N
1504956495.9,286047000.6,N
1504956515.7,286046998.1,N
1504956535.6,286046996.8,N
1504956555.4,286046997.8,N
1504956575.2,286046995.0,N
1504956595.1,286046993.3,N
1504956596.0,286046993.3,N
1504956615.8,286046994.7,N
1504956635.6,286046992.2,N
1504956655.5,286046989.2,N
1504956675.3,286046989.2,N
1504956695.1,286046988.0,N
1504956715.9,286046984.6,N
1504956735.7,286046982.9,N
1504956755.5,286046985.0,N
1504956775.4,286046983.9,N
1504956795.2,286046983.5,N
1504956815.0,286046981.7,N
1504956815.9,286046981.7,N
1504956835.8,286046982.0,N
1504956855.6,286046977.6,P
1504956875.4,286046986.6,N
1504956895.3,286046985.6,N
1504956915.1,286046986.8,N
1504956935.8,286046987.8,N
1504956955.7,286046988.8,N
1504956975.5,286046990.8,N
1504956995.3,286046991.2,N
1504957015.2,286046991.9,N
1504957035.9,286046992.3,N
1504957055.7,286046993.9,N
1504957075.5,286047001.2,N
1504957095.4,286047004.1,N
1504957115.2,286047003.3,N
1504957135.0,286047004.7,N
1504957135.9,286047004.7,N
1504957155.8,286047003.6,N
1504957175.6,286047003.6,N
1504957195.4,286047005.7,N
1504957215.3,286047004.7,N
1504957235.1,286047005.3,N
1504957255.8,286047004.7,N
1504957275.7,286047005.5,N
1504957295.5,286047005.1,N
1504957315.3,286047009.1,N
1504957335.2,286047008.1,N
1504957355.9,286047007.8,N
1504957375.7,286047008.1,N
1504957395.5,286047009.9,N
1504957415.4,286047010.4,N
1504957435.2,286047010.8,N
1504957455.0,286047007.3,N
1504957455.9,286047007.3,N
1504957475.8,286047004.2,N
1504957495.6,286046998.8,N
1504957515.4,286046996.8,N
1504957535.3,286046999.3,N
1504957555.1,286046997.4,N
1504957575.8,286046997.4,N
1504957595.7,286046996.4,N
1504957615.5,286046995.8,N
1504957635.3,286046995.9,N
1504957655.2,286046993.8,N
1504957675.9,286046992.7,N
1504957695.7,286046991.1,N
1504957715.6,286046991.6,N
1504957735.4,286046988.1,N
1504957755.2,286046984.1,N
1504957775.0,286046982.2,N
1504957776.0,286046982.2,N
1504957795.8,286046981.6,N
1504957815.6,286046979.6,N
1504957835.4,286046979.5,N
1504957855.3,286046979.3,N
1504957875.1,286046981.1,N
1504957895.8,286046981.4,N
1504957915.7,286046982.4,N
1504957935.5,286046984.8,N
1504957955.3,286046983.3,N
1504957975.2,286046982.9,N
1504957995.9,286046983.5,N
1504958015.7,286046979.5,N
1504958035.6,286046980.7,N
1504958055.4,286046984.0,N
1504958075.2,286046982.1,N
1504958095.1,286046984.7,N
1504958096.0,286046984.7,N
1504958115.8,286046986.7,N
1504958135.6,286046985.9,N
1504958155.5,286046988.3,N
1504958175.3,286046989.9,N
1504958195.1,286046989.4,N
1504958215.8,286046991.5,N
1504958235.7,286046991.4,N
1504958255.5,286046991.4,N
1504958275.3,286046990.5,N
1504958295.2,286046993.6,N
1504958315.9,286046990.1,N
1504958335.7,286046992.5,N
1504958355.6,286046991.9,N
1504958375.4,286046992.8,N
1504958395.2,286046991.6,N
